DW6706 Weather Reports


time (UTC)temp
C
wind
direction
speed
KPH
gust
KPH
rain 1hr
cm
rain 24hr
cm
rain mn
cm
humidity
%
barometer
mb
20260502065532 12 292 0.0 0.0 0.00 9.47 0.00 94 1015.8
20260502064532 12 292 0.0 1.6 0.00 9.47 0.00 94 1015.7
20260502062532 12 292 0.0 1.6 0.00 9.47 0.00 94 1015.3
20260502054532 12 275 0.0 3.2 0.00 9.55 0.00 94 1015.5
20260502053532 13 277 1.6 4.8 0.00 9.55 0.00 94 1015.4
20260502052532 13 233 0.0 3.2 0.00 9.58 0.00 94 1015.4
20260502051532 13 233 1.6 9.7 0.00 9.58 0.00 94 1015.3
20260502050532 13 107 0.0 6.4 0.00 9.58 0.00 95 1015.3
20260502045532 13 267 0.0 3.2 0.00 9.58 0.00 95 1015.3
20260502043532 13 294 0.0 8.0 0.00 9.58 9.58 95 1015.2
20260502042532 13 227 1.6 9.7 0.00 9.58 9.58 94 1015.1
20260502041531 13 176 0.0 6.4 0.00 9.58 9.58 95 1015.0
20260502040532 13 315 1.6 8.0 0.00 9.58 9.58 95 1014.9
20260502035532 13 154 0.0 3.2 0.00 9.58 9.58 95 1015.1
20260502033532 13 246 0.0 3.2 0.00 9.58 9.58 95 1015.2
20260502032532 13 246 1.6 9.7 0.00 9.58 9.58 95 1015.2
20260502031532 13 84 1.6 1.6 0.00 9.58 9.58 95 1014.8
20260502030531 13 84 0.0 3.2 0.03 9.58 9.58 95 1014.7
20260502025532 13 84 0.0 3.2 0.03 9.58 9.58 94 1014.5
20260502022531 13 253 0.0 8.0 0.10 9.58 9.58 94 1013.3
20260502021532 13 158 1.6 6.4 0.13 9.58 9.58 94 1013.5
20260502020531 13 82 1.6 3.2 0.15 9.55 9.55 94 1013.4
20260502015531 13 246 0.0 3.2 0.18 9.55 9.55 94 1013.4
20260502014532 13 115 0.0 3.2 0.20 9.53 9.53 94 1013.4
20260502013531 13 238 1.6 8.0 0.23 9.50 9.50 94 1013.0
20260502012531 14 98 3.2 8.0 0.25 9.47 9.47 94 1012.7
20260502011531 14 113 1.6 3.2 0.28 9.45 9.45 94 1012.8
20260502010532 14 284 1.6 12.9 0.30 9.40 9.40 94 1013.5
20260502005531 14 231 0.0 11.3 0.36 9.37 9.37 94 1013.1
20260502004532 15 267 1.6 9.7 0.36 9.32 9.32 94 1012.3
20260502003531 15 239 0.0 4.8 0.38 9.27 9.27 95 1011.8
20260502002532 15 115 1.6 3.2 0.38 9.22 9.22 95 1011.7
20260502000532 15 271 3.2 6.4 0.38 9.09 9.09 95 1012.5
20260501235531 15 266 1.6 8.0 0.38 9.02 9.02 95 1012.0
20260501234531 15 297 0.0 1.6 0.41 8.97 8.97 95 1011.5
20260501233531 15 297 1.6 3.2 0.38 8.89 8.89 95 1012.4
20260501232532 15 243 0.0 3.2 0.33 8.84 8.84 95 1011.3
20260501231531 15 242 0.0 4.8 0.28 8.76 8.76 95 1011.0
20260501230532 15 70 0.0 3.2 0.25 8.71 8.71 95 1010.3
20260501225532 15 70 3.2 3.2 0.23 8.64 8.64 95 1010.6
20260501224531 15 300 0.0 6.4 0.18 8.56 8.56 95 1010.8
20260501222531 16 272 1.6 9.7 0.20 8.51 8.51 95 1009.3
20260501221531 16 296 1.6 4.8 0.23 8.48 8.48 95 1008.7
20260501220531 16 170 0.0 6.4 0.23 8.46 8.46 95 1009.6
20260501215532 16 94 0.0 3.2 0.23 8.41 8.41 95 1010.0
20260501214531 16 94 0.0 8.0 0.23 8.38 8.38 95 1010.6
20260501213531 16 271 0.0 3.2 0.20 8.33 8.33 95 1010.7
20260501212531 16 259 3.2 3.2 0.23 8.31 8.31 95 1010.6
20260501211531 16 264 1.6 6.4 0.20 8.26 8.26 95 1010.4
20260501210531 16 246 3.2 6.4 0.23 8.23 8.23 95 1010.3
20260501205531 16 231 1.6 6.4 0.23 8.18 8.18 95 1009.7
20260501204531 16 151 0.0 8.0 0.20 8.15 8.15 95 1008.7
20260501203531 16 261 8.0 11.3 0.20 8.13 8.13 95 1009.8
20260501202531 16 246 1.6 11.3 0.18 8.08 8.08 95 1009.7
20260501201531 16 282 0.0 8.0 0.15 8.05 8.05 95 1008.6
20260501200531 17 94 0.0 3.2 0.10 8.00 8.00 95 1008.7
20260501195531 17 95 1.6 6.4 0.08 7.95 7.95 95 1009.9
20260501194531 17 240 0.0 3.2 0.08 7.95 7.95 95 1010.0
20260501193531 17 263 0.0 3.2 0.05 7.92 7.92 95 1009.3
20260501191531 17 73 0.0 3.2 0.03 7.90 7.90 95 1009.3
20260501185531 17 186 0.0 3.2 0.05 7.87 7.87 95 1008.9
20260501184531 17 71 0.0 3.2 0.08 7.87 7.87 95 1008.2
20260501183531 17 188 0.0 3.2 0.13 7.87 7.87 95 1009.1
20260501182531 17 188 1.6 3.2 0.15 7.87 7.87 95 1009.0
20260501174531 17 127 0.0 3.2 0.18 7.80 7.80 95 1008.9
20260501173531 17 254 0.0 3.2 0.18 7.75 7.75 95 1009.5
20260501172531 17 248 1.6 3.2 0.23 7.72 7.72 95 1010.2
20260501171531 17 213 0.0 3.2 0.30 7.70 7.70 95 1010.6
20260501170531 17 212 1.6 3.2 0.41 7.70 7.70 95 1010.2
20260501165531 17 191 0.0 4.8 0.46 7.65 7.65 95 1010.6
20260501164531 17 19 0.0 3.2 0.56 7.62 7.62 95 1010.4
20260501161531 16 278 1.6 8.0 0.64 7.39 7.39 95 1012.4
20260501160531 16 231 1.6 9.7 0.56 7.29 7.29 95 1011.9
20260501155531 16 241 1.6 8.0 0.46 7.19 7.19 95 1011.8